�������l�o���
Date,Time,MP-1(��Sv/h),MP-2(��Sv/h),MP-3(��Sv/h),MP-4(��Sv/h),MP-5(��Sv/h),MP-6(��Sv/h),MP-7(��Sv/h),����,����(m/s),���J
2019/01/31,00:00,0.214,0.196,0.319,0.298,0.277,0.159,0.097,�k,1.8,��
2019/01/31,00:10,0.215,0.196,0.319,0.297,0.278,0.159,0.096,�k�k��,1.9,��
2019/01/31,00:20,0.215,0.196,0.319,0.298,0.277,0.160,0.097,�k��,1.5,��
2019/01/31,00:30,0.213,0.195,0.319,0.297,0.279,0.159,0.096,�k�k��,0.9,��
2019/01/31,00:40,0.215,0.196,0.319,0.297,0.278,0.159,0.097,�k�k��,1.0,��
2019/01/31,00:50,0.214,0.196,0.320,0.299,0.278,0.159,0.097,�k�k��,1.3,��
2019/01/31,01:00,0.214,0.195,0.319,0.297,0.278,0.159,0.097,�k�k��,0.7,��
2019/01/31,01:10,0.216,0.197,0.318,0.297,0.278,0.158,0.096,��,1.4,��
2019/01/31,01:20,0.215,0.196,0.319,0.298,0.278,0.159,0.097,���쐼,3.3,��
2019/01/31,01:30,0.214,0.196,0.318,0.296,0.278,0.158,0.097,��쓌,1.0,��
2019/01/31,01:40,0.214,0.196,0.319,0.298,0.280,0.159,0.097,���쐼,1.3,��
2019/01/31,01:50,0.213,0.195,0.319,0.297,0.278,0.159,0.097,��,2.8,��
2019/01/31,02:00,0.215,0.196,0.319,0.297,0.278,0.160,0.095,��,5.7,��
2019/01/31,02:10,0.215,0.196,0.318,0.296,0.277,0.158,0.096,��,4.4,��
2019/01/31,02:20,0.213,0.195,0.321,0.296,0.279,0.158,0.096,���k��,2.9,��
2019/01/31,02:30,0.214,0.196,0.318,0.297,0.278,0.159,0.096,���k��,5.3,��
2019/01/31,02:40,0.214,0.196,0.318,0.296,0.277,0.159,0.096,��,6.1,��
2019/01/31,02:50,0.215,0.196,0.318,0.297,0.279,0.159,0.096,���k��,5.7,��
2019/01/31,03:00,0.214,0.196,0.319,0.297,0.278,0.158,0.096,���k��,3.6,��
2019/01/31,03:10,0.215,0.196,0.318,0.296,0.278,0.159,0.096,���k��,3.4,��
2019/01/31,03:20,0.214,0.195,0.319,0.297,0.277,0.158,0.095,���k��,4.0,��
2019/01/31,03:30,0.214,0.195,0.317,0.298,0.279,0.159,0.096,��,3.3,��
2019/01/31,03:40,0.214,0.196,0.318,0.297,0.277,0.158,0.096,���k��,4.9,��
2019/01/31,03:50,0.214,0.196,0.317,0.298,0.278,0.158,0.095,��,2.2,��
2019/01/31,04:00,0.214,0.195,0.318,0.296,0.276,0.158,0.095,�쐼,0.8,��
2019/01/31,04:10,0.213,0.195,0.317,0.297,0.277,0.158,0.096,�k��,2.0,��
2019/01/31,04:20,0.213,0.195,0.318,0.296,0.279,0.158,0.096,�k,1.4,��
2019/01/31,04:30,0.214,0.196,0.317,0.298,0.277,0.159,0.095,�k,3.0,��
2019/01/31,04:40,0.213,0.195,0.319,0.294,0.278,0.158,0.095,�k�k��,2.9,��
2019/01/31,04:50,0.214,0.195,0.318,0.295,0.278,0.159,0.096,�k�k��,1.6,��
2019/01/31,05:00,0.214,0.195,0.319,0.298,0.278,0.158,0.095,�k�k��,2.3,��
2019/01/31,05:10,0.213,0.196,0.319,0.297,0.279,0.158,0.095,�k�k��,2.3,��
2019/01/31,05:20,0.214,0.195,0.319,0.297,0.279,0.159,0.096,�k��,3.7,��
2019/01/31,05:30,0.214,0.195,0.318,0.295,0.277,0.158,0.095,���k��,2.4,��
2019/01/31,05:40,0.215,0.195,0.319,0.296,0.278,0.159,0.096,�k��,2.4,��
2019/01/31,05:50,0.214,0.196,0.318,0.298,0.277,0.158,0.096,��,3.3,��
2019/01/31,06:00,0.213,0.195,0.317,0.296,0.277,0.157,0.096,���k��,2.6,��
2019/01/31,06:10,0.214,0.195,0.319,0.296,0.277,0.158,0.096,���k��,1.8,��
2019/01/31,06:20,0.213,0.195,0.318,0.297,0.278,0.158,0.096,��,6.2,��
2019/01/31,06:30,0.212,0.195,0.319,0.297,0.278,0.158,0.095,���쐼,5.2,��
2019/01/31,06:40,0.214,0.195,0.318,0.296,0.277,0.159,0.095,��쐼,2.8,��
2019/01/31,06:50,0.215,0.196,0.319,0.297,0.279,0.158,0.096,��쐼,2.3,��
2019/01/31,07:00,0.213,0.195,0.318,0.298,0.278,0.158,0.096,��쐼,2.9,��
2019/01/31,07:10,0.212,0.195,0.317,0.297,0.277,0.158,0.096,��쓌,2.7,��
2019/01/31,07:20,0.214,0.194,0.319,0.297,0.278,0.157,0.096,��,3.5,��
2019/01/31,07:30,0.214,0.195,0.318,0.297,0.278,0.159,0.095,��쐼,3.7,��
2019/01/31,07:40,0.213,0.196,0.318,0.297,0.277,0.158,0.096,��쐼,2.5,��
2019/01/31,07:50,0.212,0.195,0.318,0.296,0.277,0.158,0.095,��,3.2,��
2019/01/31,08:00,0.213,0.195,0.318,0.295,0.279,0.158,0.095,��쐼,3.6,��
2019/01/31,08:10,0.214,0.196,0.318,0.296,0.277,0.157,0.095,��,3.5,��
2019/01/31,08:20,0.213,0.194,0.318,0.297,0.277,0.159,0.095,��쐼,2.6,��
2019/01/31,08:30,0.213,0.196,0.319,0.297,0.278,0.158,0.095,��쐼,3.2,��
2019/01/31,08:40,0.212,0.196,0.318,0.296,0.278,0.158,0.095,��쐼,0.9,��
2019/01/31,08:50,0.213,0.194,0.315,0.296,0.278,0.158,0.096,��쐼,2.5,��
2019/01/31,09:00,0.213,0.195,0.317,0.296,0.279,0.159,0.095,���쐼,5.5,��
2019/01/31,09:10,0.213,0.195,0.318,0.296,0.277,0.158,0.095,��,3.2,��
2019/01/31,09:20,0.213,0.194,0.317,0.295,0.277,0.157,0.095,���k��,6.8,��
2019/01/31,09:30,0.214,0.195,0.319,0.297,0.278,0.158,0.095,��,5.5,��
2019/01/31,09:40,0.213,0.195,0.317,0.295,0.278,0.158,0.095,��,7.8,��
2019/01/31,09:50,0.213,0.194,0.317,0.297,0.279,0.157,0.095,���k��,5.7,��
2019/01/31,10:00,0.214,0.194,0.318,0.295,0.276,0.158,0.095,��,6.6,��
2019/01/31,10:10,0.211,0.194,0.318,0.296,0.279,0.158,0.095,���k��,5.8,��
2019/01/31,10:20,0.214,0.195,0.317,0.295,0.279,0.159,0.095,���쐼,9.0,��
2019/01/31,10:30,0.213,0.196,0.318,0.296,0.277,0.158,0.096,��,6.7,��
2019/01/31,10:40,0.213,0.195,0.317,0.297,0.280,0.160,0.096,���k��,3.8,��
2019/01/31,10:50,0.213,0.196,0.319,0.297,0.278,0.159,0.095,��,4.1,��
2019/01/31,11:00,0.212,0.195,0.319,0.297,0.281,0.159,0.095,��,7.4,��
2019/01/31,11:10,0.215,0.195,0.318,0.296,0.277,0.159,0.095,���쐼,7.0,��
2019/01/31,11:20,0.213,0.196,0.319,0.297,0.280,0.159,0.096,���쐼,4.8,��
2019/01/31,11:30,0.213,0.195,0.317,0.297,0.279,0.158,0.095,���쐼,5.7,��
2019/01/31,11:40,0.212,0.197,0.321,0.298,0.278,0.160,0.095,���쐼,4.4,��
2019/01/31,11:50,0.213,0.195,0.316,0.295,0.277,0.159,0.096,��,2.3,��
2019/01/31,12:00,0.212,0.196,0.319,0.298,0.280,0.159,0.095,�k�k��,3.4,��
2019/01/31,12:10,0.213,0.194,0.317,0.295,0.275,0.158,0.096,�k��,6.4,��
2019/01/31,12:20,0.214,0.195,0.318,0.297,0.279,0.160,0.096,�k��,7.5,��
2019/01/31,12:30,0.214,0.195,0.319,0.294,0.278,0.158,0.096,�k��,7.0,��
2019/01/31,12:40,0.215,0.196,0.318,0.297,0.280,0.159,0.096,���k��,10.9,��
2019/01/31,12:50,0.214,0.196,0.319,0.296,0.277,0.158,0.095,�k��,12.6,��
2019/01/31,13:00,0.215,0.196,0.319,0.299,0.279,0.159,0.096,�k��,10.0,��
2019/01/31,13:10,0.215,0.196,0.320,0.296,0.280,0.159,0.096,���k��,7.8,��
2019/01/31,13:20,0.213,0.197,0.320,0.298,0.278,0.158,0.095,���k��,9.8,��
2019/01/31,13:30,0.214,0.197,0.317,0.298,0.280,0.161,0.096,���k��,6.5,��
2019/01/31,13:40,0.212,0.196,0.322,0.297,0.279,0.159,0.096,���k��,5.3,��
2019/01/31,13:50,0.214,0.196,0.317,0.296,0.280,0.158,0.095,���k��,8.1,��
2019/01/31,14:00,0.213,0.195,0.319,0.297,0.277,0.158,0.096,���k��,8.1,��
2019/01/31,14:10,0.214,0.195,0.316,0.297,0.280,0.159,0.096,�k��,6.3,��
2019/01/31,14:20,0.213,0.195,0.318,0.297,0.277,0.158,0.095,�k��,7.0,��
2019/01/31,14:30,0.213,0.196,0.319,0.297,0.280,0.159,0.096,�k��,6.1,��
2019/01/31,14:40,0.213,0.194,0.318,0.295,0.277,0.159,0.096,�k��,7.5,��
2019/01/31,14:50,0.213,0.195,0.319,0.296,0.280,0.159,0.095,�k��,9.6,��
2019/01/31,15:00,0.214,0.196,0.318,0.297,0.279,0.159,0.095,�k��,8.7,��
2019/01/31,15:10,0.214,0.196,0.319,0.297,0.279,0.158,0.096,�k��,8.1,��
2019/01/31,15:20,0.214,0.197,0.318,0.297,0.280,0.158,0.095,���k��,7.3,��
2019/01/31,15:30,0.214,0.196,0.317,0.299,0.279,0.158,0.095,�k��,5.9,��
2019/01/31,15:40,0.213,0.196,0.320,0.298,0.280,0.159,0.095,�k��,5.6,��
2019/01/31,15:50,0.214,0.196,0.319,0.296,0.280,0.159,0.096,�k�k��,4.5,��
2019/01/31,16:00,0.214,0.195,0.319,0.300,0.280,0.159,0.096,�k�k��,5.4,��
2019/01/31,16:10,0.214,0.197,0.319,0.297,0.280,0.159,0.095,�k�k��,5.9,��
2019/01/31,16:20,0.214,0.196,0.318,0.298,0.280,0.158,0.096,�k�k��,6.3,��
2019/01/31,16:30,0.215,0.195,0.319,0.299,0.279,0.159,0.096,�k��,9.7,��
2019/01/31,16:40,0.213,0.196,0.319,0.297,0.279,0.159,0.096,�k��,8.2,��
2019/01/31,16:50,0.215,0.198,0.319,0.298,0.279,0.160,0.096,�k��,7.9,��
2019/01/31,17:00,0.214,0.197,0.318,0.299,0.280,0.160,0.096,�k�k��,5.2,��
2019/01/31,17:10,0.214,0.196,0.320,0.298,0.280,0.159,0.096,�k,5.9,��
2019/01/31,17:20,0.214,0.196,0.321,0.298,0.280,0.160,0.096,�k,7.8,��
2019/01/31,17:30,0.214,0.196,0.319,0.299,0.279,0.159,0.097,�k�k��,7.8,��
2019/01/31,17:40,0.215,0.197,0.319,0.299,0.280,0.160,0.096,�k��,6.8,��
2019/01/31,17:50,0.213,0.196,0.320,0.297,0.280,0.160,0.096,�k��,7.7,��
2019/01/31,18:00,0.214,0.197,0.320,0.298,0.279,0.159,0.095,�k��,6.7,��
2019/01/31,18:10,0.215,0.197,0.319,0.299,0.280,0.159,0.096,�k�k��,4.7,��
2019/01/31,18:20,0.213,0.196,0.320,0.297,0.279,0.159,0.096,�k��,5.9,��
2019/01/31,18:30,0.214,0.196,0.320,0.298,0.280,0.159,0.096,�k��,5.9,��
2019/01/31,18:40,0.214,0.197,0.321,0.298,0.279,0.159,0.097,���k��,4.8,��
2019/01/31,18:50,0.215,0.197,0.317,0.298,0.281,0.160,0.096,�k��,5.2,��
2019/01/31,19:00,0.215,0.196,0.319,0.297,0.280,0.160,0.096,�k��,3.6,��
2019/01/31,19:10,0.214,0.196,0.320,0.299,0.279,0.159,0.096,���k��,2.6,��
2019/01/31,19:20,0.214,0.196,0.321,0.299,0.279,0.159,0.097,�k��,3.6,��
2019/01/31,19:30,0.214,0.196,0.320,0.298,0.281,0.159,0.097,�k�k��,2.3,��
2019/01/31,19:40,0.216,0.196,0.318,0.298,0.279,0.159,0.096,�k,3.1,��
2019/01/31,19:50,0.214,0.197,0.320,0.298,0.278,0.159,0.096,�k,4.5,��
2019/01/31,20:00,0.215,0.196,0.320,0.298,0.280,0.159,0.097,�k��,2.6,��
2019/01/31,20:10,0.215,0.196,0.318,0.298,0.280,0.159,0.096,�k��,3.5,��
2019/01/31,20:20,0.215,0.196,0.319,0.298,0.278,0.159,0.096,�k�k��,2.7,��
2019/01/31,20:30,0.215,0.195,0.320,0.299,0.279,0.160,0.096,�k�k��,4.4,��
2019/01/31,20:40,0.214,0.196,0.321,0.299,0.279,0.159,0.096,�k�k��,4.4,��
2019/01/31,20:50,0.215,0.196,0.320,0.298,0.279,0.159,0.095,�k��,2.9,��
2019/01/31,21:00,0.214,0.197,0.320,0.299,0.279,0.159,0.096,�k�k��,2.6,��
2019/01/31,21:10,0.215,0.197,0.320,0.300,0.280,0.160,0.096,�k�k��,3.4,��
2019/01/31,21:20,0.213,0.197,0.320,0.297,0.281,0.159,0.096,�k�k��,3.6,��
2019/01/31,21:30,0.215,0.196,0.319,0.298,0.277,0.160,0.096,�k�k��,3.3,��
2019/01/31,21:40,0.215,0.196,0.319,0.298,0.279,0.159,0.096,�k�k��,4.3,��
2019/01/31,21:50,0.214,0.197,0.319,0.299,0.279,0.160,0.097,�k�k��,4.7,��
2019/01/31,22:00,0.215,0.197,0.321,0.298,0.280,0.159,0.097,�k��,3.5,��
2019/01/31,22:10,0.214,0.196,0.320,0.298,0.278,0.159,0.096,�k�k��,2.6,��
2019/01/31,22:20,0.215,0.197,0.319,0.298,0.279,0.159,0.096,�k�k��,2.1,��
2019/01/31,22:30,0.214,0.196,0.319,0.298,0.280,0.158,0.096,�k�k��,4.1,��
2019/01/31,22:40,0.214,0.196,0.320,0.299,0.278,0.159,0.096,�k,4.5,��
2019/01/31,22:50,0.213,0.196,0.319,0.298,0.276,0.159,0.095,�k�k��,4.5,��
2019/01/31,23:00,0.215,0.195,0.319,0.297,0.278,0.159,0.096,�k�k��,5.5,��
2019/01/31,23:10,0.213,0.196,0.320,0.297,0.279,0.159,0.096,�k�k��,6.5,��
2019/01/31,23:20,0.213,0.195,0.319,0.297,0.278,0.159,0.095,�k�k��,6.4,��
2019/01/31,23:30,0.213,0.195,0.320,0.297,0.278,0.159,0.096,�k�k��,5.9,��
2019/01/31,23:40,0.213,0.195,0.319,0.298,0.278,0.159,0.096,�k�k��,5.6,��
2019/01/31,23:50,0.213,0.195,0.318,0.298,0.278,0.159,0.096,�k�k��,4.9,��
